Home   Weather   Buffalo   Past weeks

Flag for USA Past Weather in Buffalo, New York, USA — Yesterday and Last 2 Weeks

Now
37 °F

Fog.


Feels Like: 31 °F
Forecast: 42 / 54 °F
Wind: 8 mph from Northeast

Location: Greater Buffalo International Airport

Current Time: Jan 22, 2017 at 7:33:28 am

Latest Report: Jan 22, 2017 at 7:00 am


Visibility: 2 mi

Pressure: 29.66 "Hg

Humidity: 93%

Dew Point: 35 °F

Location of BuffaloLocation

Past Weather in Buffalo — Graph

°F

Buffalo Temperature Yesterday

Maximum temperature yesterday: 59 °F (at 2:54 pm)
Minimum temperature yesterday: 40 °F (at 1:54 am)
Average temperature yesterday: 46 °F

High & Low Weather Summary for the Past Weeks

 TemperatureHumidityPressure
High59 °F (Jan 21, 2:54 pm)100% (Jan 21, 7:32 am)30.78 "Hg (Jan 21, 7:32 am)
Low7 °F (Jan 7, 6:54 am)37% (Jan 11, 2:54 pm)29.59 "Hg (Jan 11, 12:54 am)
Average33 °F78%30.11 "Hg
* Reported Jan 7 6:54 am — Jan 22 6:21 am, Buffalo, Weather by CustomWeather, © 2017

Note: Actual official high and low records may vary slightly from our data, if they occured in-between our weather recording intervals... More about our weather records

Advertising

Buffalo Weather History for the Previous 24 Hours

Scroll right to see more
 ConditionsComfort  
Time TempWeatherWind HumidityBarometerVisibility
6:21 am
Sun, Jan 22
37 °FFog.5 mph96%29.67 "Hg2 mi
5:54 am37 °FFog.5 mph96%29.67 "Hg1 mi
5:32 am38 °FFog.7 mph97%29.66 "Hg1 mi
5:22 am38 °FFog.5 mph97%29.67 "Hg1 mi
4:54 am38 °FFog.8 mph93%29.68 "Hg3 mi
4:22 am38 °FFog.8 mph97%29.67 "Hg1 mi
3:54 am41 °FFog.6 mph93%29.68 "Hg7 mi
2:54 am41 °FFog.3 mph96%29.69 "Hg8 mi
1:54 am44 °FFog.3 mph96%29.68 "Hg6 mi
12:54 am45 °FPartly cloudy.5 mph93%29.68 "Hg7 mi
11:54 pm
Sat, Jan 21
47 °FFog.No wind93%29.68 "Hg6 mi
10:54 pm50 °FPartly cloudy.3 mph89%29.68 "Hg10 mi
9:54 pm51 °FPassing clouds.5 mph86%29.69 "Hg10 mi
8:54 pm50 °FPassing clouds.No wind89%29.70 "Hg8 mi
7:54 pm53 °FPassing clouds.3 mph80%29.70 "Hg10 mi
6:54 pm52 °FPartly cloudy.5 mph83%29.70 "Hg10 mi
5:54 pm54 °FPartly cloudy.6 mph80%29.69 "Hg10 mi
4:54 pm54 °FBroken clouds.6 mph80%29.69 "Hg10 mi
3:54 pm58 °FPartly sunny.3 mph70%29.69 "Hg10 mi
2:54 pm59 °FBroken clouds.6 mph72%29.70 "Hg10 mi
1:54 pm57 °FBroken clouds.3 mph74%29.71 "Hg10 mi
12:54 pm55 °FPartly sunny.No wind77%29.72 "Hg10 mi
11:54 am53 °FOvercast.No wind80%29.76 "Hg10 mi
10:54 am49 °FPartly sunny.No wind93%29.77 "Hg7 mi
10:33 am48 °FFog.No wind93%29.77 "Hg3 mi
9:54 am46 °FFog.No wind96%29.79 "Hg0 mi
9:28 am45 °FFog.5 mph93%29.78 "Hg1 mi
9:10 am44 °FFog.No wind96%29.78 "Hg1 mi
8:54 am44 °FFog.5 mph93%29.79 "Hg1 mi
8:19 am43 °FFog.3 mph97%29.78 "Hg0 mi
8:06 am43 °FFog.No wind97%29.78 "Hg0 mi
7:32 am43 °FFog.No wind100%29.79 "Hg0 mi
7:05 am43 °FFog.6 mph97%29.79 "Hg0 mi
Weather by CustomWeather, © 2017

See weather overviewHow to use our weather pages